Weather History for Rickenbacker, OH

Change the Weather History Date:

Friday, November 30, 2012

  Actual Average Record
Temperature  
Mean Temperature 46 °F -  
Max Temperature 59 °F 46 °F 71 °F (1998)
Min Temperature 33 °F 31 °F 21 °F (1999)
Degree Days  
Heating Degree Days 19    
Moisture  
Dew Point 29 °F    
Average Humidity 57    
Maximum Humidity 77    
Minimum Humidity 31    
Precipitation  
Precipitation 0.00 in - - ()
Sea Level Pressure  
Sea Level Pressure 30.21 in    
Wind  
Wind Speed 5 mph (SSW)    
Max Wind Speed 16 mph    
Max Gust Speed 22 mph    
Visibility 10 miles    
Events      
Averages and records for this station are not official NWS values.
T = Trace of Precipitation, MM = Missing Value Source: NWS Daily Summary

Daily Weather History Graph

Daily Weather History Graph

Search for Another Location

Airport:

Trip Planner

Search our weather history database for the weather conditions in past years. The results will help you decide how hot, cold, wet, or windy it might be!

Date:

Astronomy

Nov. 30, 2012 Rise Set
Actual Time 7:33 AM EST 5:07 PM EST
Civil Twilight 7:03 AM EST 5:37 PM EST
Nautical Twilight 6:29 AM EST 6:11 PM EST
Astronomical Twilight 5:57 AM EST 6:43 PM EST
Moon 7:01 PM EST 9:04 AM EST
Length of Visible Light 10h 34m
Length of Day
9h 34m
Waning Gibbous, 96% of the Moon is Illuminated
Nov 30
Waning Gibbous
Dec 6
Last Quarter
Dec 13
New
Dec 20
First Quarter
Dec 28
Full

Hourly Weather History & Observations

Time (EST) Temp. Windchill Dew Point Humidity Pressure Visibility Wind Dir Wind Speed Gust Speed Precip Events Conditions
12:15 AM 36.0 °F - 25.5 °F 66% 30.26 in 10.0 mi Calm Calm - N/A   Overcast
12:35 AM 36.5 °F - 25.0 °F 63% 30.26 in 10.0 mi Calm Calm - N/A   Overcast
12:55 AM 36.7 °F - 25.3 °F 64% 30.25 in 10.0 mi Calm Calm - N/A   Overcast
1:15 AM 35.8 °F - 25.7 °F 67% 30.25 in 10.0 mi Calm Calm - N/A   Scattered Clouds
1:35 AM 34.3 °F - 25.0 °F 69% 30.25 in 10.0 mi Calm Calm - N/A   Clear
1:55 AM 34.2 °F - 24.6 °F 68% 30.25 in 10.0 mi Calm Calm - N/A   Clear
2:15 AM 33.8 °F - 24.6 °F 69% 30.25 in 10.0 mi Calm Calm - N/A   Mostly Cloudy
2:35 AM 34.2 °F - 25.2 °F 70% 30.25 in 10.0 mi Calm Calm - N/A   Mostly Cloudy
2:55 AM 33.8 °F - 25.9 °F 73% 30.25 in 10.0 mi Calm Calm - N/A   Mostly Cloudy
3:15 AM 34.2 °F - 25.5 °F 71% 30.25 in 10.0 mi Calm Calm - N/A   Overcast
3:35 AM 33.6 °F - 25.5 °F 72% 30.24 in 10.0 mi Calm Calm - N/A   Overcast
3:55 AM 33.8 °F - 25.0 °F 70% 30.24 in 10.0 mi Calm Calm - N/A   Overcast
4:15 AM 34.2 °F 30.0 °F 26.1 °F 72% 30.24 in 10.0 mi SW 4.6 mph - N/A   Overcast
4:35 AM 34.0 °F 28.8 °F 27.3 °F 77% 30.24 in 10.0 mi SSW 5.8 mph - N/A   Overcast
4:55 AM 33.8 °F 30.8 °F 27.3 °F 77% 30.24 in 10.0 mi SSW 3.5 mph - N/A   Overcast
5:15 AM 34.9 °F 32.0 °F 27.3 °F 74% 30.24 in 10.0 mi South 3.5 mph - N/A   Mostly Cloudy
5:35 AM 35.1 °F 29.3 °F 26.2 °F 70% 30.23 in 10.0 mi South 6.9 mph - N/A   Scattered Clouds
5:55 AM 34.3 °F 28.4 °F 25.3 °F 70% 30.23 in 10.0 mi South 6.9 mph - N/A   Clear
6:15 AM 35.2 °F 29.5 °F 25.3 °F 67% 30.23 in 10.0 mi South 6.9 mph - N/A   Clear
6:35 AM 34.9 °F 28.3 °F 25.7 °F 69% 30.23 in 10.0 mi South 8.1 mph - N/A   Scattered Clouds
6:55 AM 36.9 °F 30.7 °F 25.9 °F 64% 30.23 in 10.0 mi South 8.1 mph - N/A   Scattered Clouds
7:15 AM 37.0 °F 31.6 °F 25.7 °F 64% 30.24 in 10.0 mi South 6.9 mph - N/A   Clear
7:35 AM 35.4 °F 29.7 °F 25.5 °F 67% 30.24 in 10.0 mi SSW 6.9 mph - N/A   Clear
7:55 AM 35.6 °F 29.2 °F 25.9 °F 68% 30.24 in 10.0 mi SSW 8.1 mph - N/A   Clear
8:15 AM 37.4 °F 32.1 °F 26.8 °F 66% 30.24 in 10.0 mi South 6.9 mph - N/A   Clear
8:35 AM 39.2 °F 34.2 °F 27.7 °F 63% 30.24 in 10.0 mi SSW 6.9 mph - N/A   Clear
8:55 AM 40.3 °F 35.5 °F 27.9 °F 61% 30.24 in 10.0 mi SSW 6.9 mph - N/A   Clear
9:15 AM 43.3 °F 37.7 °F 28.6 °F 56% 30.25 in 10.0 mi South 10.4 mph - N/A   Scattered Clouds
9:35 AM 44.6 °F 39.2 °F 28.2 °F 53% 30.26 in 10.0 mi South 10.4 mph - N/A   Scattered Clouds
9:55 AM 45.5 °F 40.3 °F 28.8 °F 52% 30.26 in 10.0 mi South 10.4 mph - N/A   Mostly Cloudy
10:15 AM 47.3 °F - 28.8 °F 49% 30.26 in 10.0 mi South 15.0 mph 18.4 mph N/A   Overcast
10:35 AM 49.3 °F - 28.6 °F 45% 30.25 in 10.0 mi South 16.1 mph 19.6 mph N/A   Scattered Clouds
10:55 AM 50.4 °F - 28.6 °F 43% 30.25 in 10.0 mi SSW 12.7 mph 19.6 mph N/A   Clear
11:15 AM 51.3 °F - 29.1 °F 43% 30.23 in 10.0 mi SSW 11.5 mph 18.4 mph N/A   Clear
11:35 AM 51.4 °F - 29.8 °F 44% 30.23 in 10.0 mi SSW 13.8 mph - N/A   Clear
11:55 AM 52.7 °F - 30.7 °F 43% 30.21 in 10.0 mi SSW 12.7 mph - N/A   Clear
12:15 PM 55.6 °F - 30.0 °F 38% 30.20 in 5.0 mi SSW 15.0 mph - N/A   Haze
12:35 PM 56.5 °F - 29.5 °F 36% 30.19 in 10.0 mi SSW 16.1 mph 20.7 mph N/A   Clear
12:55 PM 57.2 °F - 29.8 °F 35% 30.18 in 10.0 mi SSW 15.0 mph 18.4 mph N/A   Clear
1:15 PM 57.9 °F - 30.2 °F 35% 30.17 in 10.0 mi SSW 15.0 mph 21.9 mph N/A   Clear
1:35 PM 58.6 °F - 29.5 °F 33% 30.17 in 10.0 mi SW 11.5 mph 17.3 mph N/A   Clear
1:55 PM 59.2 °F - 28.2 °F 31% 30.17 in 10.0 mi SSW 13.8 mph 18.4 mph N/A   Scattered Clouds
2:15 PM 58.6 °F - 28.2 °F 31% 30.17 in 10.0 mi SSW 12.7 mph 20.7 mph N/A   Scattered Clouds
2:35 PM 58.6 °F - 28.2 °F 31% 30.16 in 10.0 mi SW 11.5 mph 18.4 mph N/A   Scattered Clouds
2:55 PM 57.7 °F - 28.6 °F 33% 30.16 in 10.0 mi SW 13.8 mph 17.3 mph N/A   Mostly Cloudy
3:15 PM 58.1 °F - 29.1 °F 33% 30.16 in 10.0 mi SW 10.4 mph - N/A   Mostly Cloudy
3:35 PM 57.7 °F - 30.6 °F 36% 30.15 in 10.0 mi South 10.4 mph - N/A   Mostly Cloudy
3:55 PM 57.4 °F - 31.6 °F 38% 30.16 in 10.0 mi SSW 10.4 mph - N/A   Mostly Cloudy
4:15 PM 57.0 °F - 32.0 °F 39% 30.16 in 10.0 mi South 6.9 mph - N/A   Mostly Cloudy
4:35 PM 55.0 °F - 32.2 °F 42% 30.16 in 10.0 mi South 5.8 mph - N/A   Scattered Clouds
4:55 PM 54.0 °F - 32.5 °F 44% 30.16 in 10.0 mi SSW 5.8 mph - N/A   Mostly Cloudy
5:15 PM 52.9 °F - 32.5 °F 46% 30.16 in 10.0 mi South 4.6 mph - N/A   Overcast
5:35 PM 52.3 °F - 32.4 °F 47% 30.17 in 10.0 mi South 4.6 mph - N/A   Overcast
5:55 PM 52.3 °F - 32.7 °F 47% 30.17 in 10.0 mi South 5.8 mph - N/A   Overcast
6:15 PM 51.4 °F - 33.8 °F 51% 30.18 in 10.0 mi SSW 6.9 mph - N/A   Overcast
6:35 PM 50.2 °F - 34.7 °F 55% 30.18 in 10.0 mi South 6.9 mph - N/A   Overcast
6:55 PM 49.3 °F - 34.9 °F 58% 30.18 in 10.0 mi SSW 5.8 mph - N/A   Mostly Cloudy
7:15 PM 48.9 °F - 34.9 °F 58% 30.18 in 10.0 mi SSW 5.8 mph - N/A   Scattered Clouds
7:35 PM 48.0 °F - 34.9 °F 60% 30.19 in 10.0 mi South 5.8 mph - N/A   Scattered Clouds
7:55 PM 48.2 °F - 35.1 °F 60% 30.20 in 10.0 mi SSW 6.9 mph - N/A   Mostly Cloudy
8:15 PM 48.4 °F - 35.6 °F 61% 30.20 in 10.0 mi South 5.8 mph - N/A   Scattered Clouds
8:35 PM 46.8 °F - 35.1 °F 64% 30.20 in 10.0 mi South 5.8 mph - N/A   Clear
8:55 PM 45.7 °F 43.4 °F 34.7 °F 65% 30.20 in 10.0 mi South 4.6 mph - N/A   Clear
9:15 PM 46.0 °F - 34.9 °F 65% 30.21 in 10.0 mi Calm Calm - N/A   Clear
9:35 PM 45.0 °F - 34.3 °F 66% 30.21 in 10.0 mi Calm Calm - N/A   Clear
9:55 PM 44.2 °F - 34.5 °F 69% 30.21 in 10.0 mi Calm Calm - N/A   Scattered Clouds
10:15 PM 44.4 °F - 34.5 °F 68% 30.21 in 10.0 mi Calm Calm - N/A   Mostly Cloudy
10:35 PM 44.6 °F - 34.5 °F 68% 30.22 in 10.0 mi Calm Calm - N/A   Mostly Cloudy
11:15 PM 41.7 °F - 33.3 °F 72% 30.21 in 10.0 mi Calm Calm - N/A   Scattered Clouds
11:35 PM 40.1 °F 38.0 °F 32.7 °F 75% 30.22 in 10.0 mi ESE 3.5 mph - N/A   Clear
11:55 PM 39.9 °F 37.8 °F 32.5 °F 75% 30.21 in 10.0 mi SE 3.5 mph - N/A   Clear